Погода в Такасаки

Япония     36°19′28″N   139°00′25″E
темп.,
°C
ветер,
м/с
пор.,
м/с
влажн.,
%
обл.,
%
осадки,
мм/ч
давл.,
гПа
погр.,
м
4 марта, чт
чт400:00+5в244288 0.0 1033572
03:00+4вюв135594 0.0 1032297
06:00+4ссз0155100 0.0 1033213
09:00+6вюв224991 0.0 1033902
12:00+10всв224018 0.0 10311207
15:00+11в343942 0.0 10291410
18:00+9вюв3555100 0.0 1030748
21:00+9ююв1261100 0.0 1030229
5 марта, пт
пт500:00+8ююз1166100 0.0 102973
03:00+7зюз1170100 0.1 102848
06:00+7з1174100 0.0 102635
09:00+9с116393 0.0 1025692
12:00+12всв1153100 0.0 10231003
15:00+12вюв2255100 0.0 1021909
18:00+11с006198 0.0 102243
21:00+10зюз116482 0.0 102130
6 марта, сб
сб600:00+9з226895 0.0 102158
03:00+8з226997 0.0 101875
06:00+8зюз2272100 0.0 101850
09:00+12зсз2357100 0.0 1019272
12:00+16ссз3445100 0.0 10181024
15:00+15с5742100 0.0 1018900
18:00+11ссз474736 0.0 1021597
21:00+8сз365419 0.0 1024469
7 марта, вс
вс700:00+6ссз245368 0.0 1025490
03:00+5ссз235376 0.0 1025444
06:00+4с2252100 0.0 1027399
09:00+6вюв2248100 0.0 1027766
12:00+8вюв3341100 0.0 10251183
15:00+9вюв3439100 0.0 10241229
18:00+8вюв2342100 0.0 1025984
21:00+6юв235698 0.0 1026619
8 марта, пн
пн800:00+6юв116379 0.0 1026467
03:00+5сз126667 0.0 1025111
06:00+4сз13622 0.0 1026236
09:00+7с23481 0.0 1027622
12:00+12ссв22310 0.0 1025977
15:00+13всв22210 0.0 10241322
18:00+11ссв22250 0.0 1026717
21:00+8сз24370 0.0 1027319